DW5678 Kavala GR current weather conditions

sailwx.info

Wind from 216

Air temperature 21.7° C
Dewpoint 15.5° C

Last reported at 2014-Sep-19 16:45 UTC.
Time now 2014-Sep-19 17:57 UTC

Location: N 40°56' E 024°24'.
View on Google Maps.

See reports from other nearby stations

  
Tides and Currents Weather Stations Pressure Air Temp Water Temp Dewpoint Dewpoint Depression Visibility Wind Speed Wind Dir Waves Ship Positions
date/time (UTC)wind fromknots sea level pressurealtimeterstation pressurevisibilityair tempwater tempwave heightnotes
2014-Sep-19 16:45 216 21.7
2014-Sep-19 16:30 228 21.7
2014-Sep-19 16:15 205 21.7
2014-Sep-19 16:00 232 21.7
2014-Sep-19 15:45 248 0 gusting 4 22.2
2014-Sep-19 15:30 208 0 gusting 4 21.7
2014-Sep-19 15:15 215 1 gusting 5 22.2
2014-Sep-19 15:00 212 0 gusting 6 22.8
2014-Sep-19 14:45 216 0 gusting 5 22.8
2014-Sep-19 14:30 210 2 gusting 4 22.8
2014-Sep-19 14:15 204 0 gusting 5 22.8
2014-Sep-19 14:00 157 0 gusting 4 23.3
2014-Sep-19 13:45 225 2 gusting 6 23.3
2014-Sep-19 13:30 194 3 gusting 6 22.8
2014-Sep-19 13:15 200 1 gusting 6 23.3
2014-Sep-19 13:00 243 1 gusting 7 23.3
2014-Sep-19 12:45 231 1 gusting 5 23.3
2014-Sep-19 12:30 189 2 gusting 6 23.3
2014-Sep-19 12:15 222 2 gusting 6 23.3
2014-Sep-19 12:00 205 0 gusting 6 23.9
2014-Sep-19 11:45 210 2 gusting 6 23.9
2014-Sep-19 11:30 215 3 gusting 6 23.9
2014-Sep-19 11:15 220 1 gusting 6 23.3
2014-Sep-19 11:00 234 2 gusting 5 23.9
2014-Sep-19 10:45 228 1 gusting 6 23.9
2014-Sep-19 10:30 240 1 gusting 6 23.9
2014-Sep-19 10:15 138 1 gusting 4 23.3
2014-Sep-19 10:00 167 1 gusting 5 22.8
2014-Sep-19 09:45 193 1 gusting 4 22.8
2014-Sep-19 09:30 136 0 gusting 6 22.2
2014-Sep-19 09:15 223 1 gusting 6 22.2
2014-Sep-19 09:00 170 2 gusting 6 22.2
2014-Sep-19 08:45 154 1 gusting 6 21.7
2014-Sep-19 08:30 163 1 gusting 6 21.1
2014-Sep-19 08:15 119 2 gusting 4 21.1
2014-Sep-19 08:00 181 0 gusting 2 21.7
2014-Sep-19 07:45 210 1 gusting 4 21.7
2014-Sep-19 07:30 218 0 gusting 2 21.1
2014-Sep-19 07:15 203 21.1
2014-Sep-19 07:00 241 0 gusting 2 21.1
2014-Sep-19 06:45 242 1 gusting 2 20.6
2014-Sep-19 06:30 191 0 gusting 4 20.0
2014-Sep-19 06:15 060 0 gusting 1 20.0
2014-Sep-19 06:00 057 19.4
2014-Sep-19 05:45 057 19.4
2014-Sep-19 05:30 057 18.9
2014-Sep-19 05:15 053 18.9
2014-Sep-19 05:00 053 18.9
2014-Sep-19 04:45 053 18.9
2014-Sep-19 04:30 053 18.3
2014-Sep-19 04:15 015 18.9
2014-Sep-19 04:00 317 18.9
2014-Sep-19 03:45 345 18.3
2014-Sep-19 03:30 350 18.9
2014-Sep-19 03:15 347 18.9
2014-Sep-19 03:00 355 18.9
2014-Sep-19 02:45 026 18.9
2014-Sep-19 02:30 037 18.9
2014-Sep-19 02:15 345 0 gusting 2 18.9
2014-Sep-19 02:00 293 0 gusting 2 18.9
2014-Sep-19 01:45 015 18.9
2014-Sep-19 01:30 015 18.9
2014-Sep-19 01:15 017 18.9
2014-Sep-19 01:00 017 18.9
2014-Sep-19 00:45 017 18.9
2014-Sep-19 00:30 017 18.9
2014-Sep-19 00:15 017 20.0
2014-Sep-19 00:00 017 19.4
2014-Sep-18 23:45 017 19.4
2014-Sep-18 23:30 017 19.4
2014-Sep-18 23:15 017 19.4
2014-Sep-18 23:00 017 20.0
2014-Sep-18 22:45 017 20.0
2014-Sep-18 22:30 017 20.6
2014-Sep-18 22:15 017 20.0
2014-Sep-18 22:00 019 20.0
2014-Sep-18 21:45 021 20.0
2014-Sep-18 21:30 021 20.0
2014-Sep-18 21:15 022 20.0
2014-Sep-18 21:00 022 20.0
2014-Sep-18 20:45 022 20.6
2014-Sep-18 20:30 031 1 gusting 2 20.0
2014-Sep-18 20:15 033 0 gusting 6 20.0
2014-Sep-18 20:00 039 2 gusting 6 20.6
2014-Sep-18 19:45 048 2 gusting 5 20.6
2014-Sep-18 19:30 055 1 gusting 4 20.6
2014-Sep-18 19:15 035 0 gusting 2 21.1
2014-Sep-18 19:00 032 1 gusting 2 21.1
2014-Sep-18 18:45 031 21.1
2014-Sep-18 18:30 032 1 gusting 4 21.7
2014-Sep-18 18:15 028 1 gusting 4 21.7
2014-Sep-18 18:00 333 21.7
2014-Sep-18 17:45 030 0 gusting 2 21.7
2014-Sep-18 17:30 270 21.7
2014-Sep-18 17:15 260 21.7
2014-Sep-18 17:00 248 21.7
2014-Sep-18 16:45 248 22.2
2014-Sep-18 16:30 248 22.2
2014-Sep-18 16:15 248 22.8
2014-Sep-18 16:00 233 22.8
2014-Sep-18 15:45 235 23.3
2014-Sep-18 15:30 236 0 gusting 2 23.3
2014-Sep-18 15:15 230 0 gusting 2 23.3
2014-Sep-18 15:00 214 23.3
2014-Sep-18 14:45 207 0 gusting 4 23.3
2014-Sep-18 14:30 210 23.9
2014-Sep-18 14:15 203 1 gusting 6 23.3
2014-Sep-18 14:00 229 1 gusting 6 23.3
2014-Sep-18 13:45 200 2 gusting 6 23.3
2014-Sep-18 13:30 199 4 gusting 6 23.9
2014-Sep-18 13:15 149 1 gusting 4 23.9
2014-Sep-18 13:00 185 1 gusting 2 23.9
2014-Sep-18 12:45 139 1 gusting 2 23.9
2014-Sep-18 12:30 234 0 gusting 2 22.8
2014-Sep-18 12:15 229 0 gusting 2 22.8
2014-Sep-18 12:00 127 1 gusting 4 22.8
2014-Sep-18 11:45 286 0 gusting 4 23.3
2014-Sep-18 11:30 275 1 gusting 6 23.3
2014-Sep-18 11:15 142 0 gusting 6 23.3
2014-Sep-18 11:00 277 0 gusting 6 22.8
2014-Sep-18 10:45 136 1 gusting 6 23.3
2014-Sep-18 10:30 218 1 gusting 6 22.8
2014-Sep-18 10:15 262 1 gusting 6 22.8
2014-Sep-18 10:00 282 1 gusting 5 21.7
2014-Sep-18 09:45 284 1 gusting 6 21.1
2014-Sep-18 09:30 322 0 gusting 5 21.1
2014-Sep-18 09:15 244 1 gusting 6 22.2
2014-Sep-18 09:00 279 1 gusting 5 21.7
2014-Sep-18 08:45 265 2 gusting 5 21.7
2014-Sep-18 08:30 268 0 gusting 2 22.2
2014-Sep-18 08:15 081 1 gusting 2 22.2
2014-Sep-18 08:00 144 0 gusting 6 20.6
2014-Sep-18 07:45 277 1 gusting 2 20.6
2014-Sep-18 07:30 288 1 gusting 5 20.0
2014-Sep-18 07:15 263 2 gusting 6 20.0
2014-Sep-18 07:00 262 0 gusting 2 21.1
2014-Sep-18 06:45 235 0 gusting 5 20.6
2014-Sep-18 06:30 279 1 gusting 2 19.4
2014-Sep-18 06:15 340 20.0
2014-Sep-18 06:00 350 1 gusting 2 19.4
2014-Sep-18 05:45 269 0 gusting 5 19.4
2014-Sep-18 05:30 039 0 gusting 6 18.9
2014-Sep-18 05:15 054 0 gusting 4 18.9
2014-Sep-18 05:00 294 1 gusting 6 18.3
2014-Sep-18 04:45 338 18.3
2014-Sep-18 04:30 343 18.3
2014-Sep-18 04:15 348 18.3
2014-Sep-18 04:00 348 17.8
2014-Sep-18 03:45 348 17.8
2014-Sep-18 03:30 348 17.8
2014-Sep-18 03:15 348 18.9
2014-Sep-18 03:00 010 18.3
2014-Sep-18 02:45 010 18.3
2014-Sep-18 02:30 010 18.3
2014-Sep-18 02:15 010 18.3
2014-Sep-18 02:00 010 18.9
2014-Sep-18 01:45 010 19.4
2014-Sep-18 01:30 328 0 gusting 2 19.4
2014-Sep-18 01:15 332 0 gusting 4 19.4
2014-Sep-18 01:00 351 19.4
2014-Sep-18 00:45 322 0 gusting 2 18.9
2014-Sep-18 00:30 009 18.9
2014-Sep-18 00:15 009 18.9
2014-Sep-18 00:00 009 0 gusting 1 18.9
2014-Sep-17 23:45 009 19.4
2014-Sep-17 23:30 009 19.4
2014-Sep-17 23:15 001 0 gusting 2 19.4
2014-Sep-17 23:00 343 20.0
2014-Sep-17 22:45 344 0 gusting 2 20.0
2014-Sep-17 22:30 013 0 gusting 4 20.0
2014-Sep-17 22:15 346 0 gusting 4 20.0
2014-Sep-17 22:00 342 20.6
2014-Sep-17 21:45 010 1 gusting 4 20.6
2014-Sep-17 21:30 355 20.6
2014-Sep-17 21:15 015 1 gusting 4 20.6
2014-Sep-17 21:00 355 0 gusting 2 20.6
2014-Sep-17 20:45 015 20.0
2014-Sep-17 20:30 015 20.0
2014-Sep-17 20:15 027 0 gusting 2 20.0
2014-Sep-17 20:00 016 0 gusting 2 20.0
2014-Sep-17 19:45 028 20.6
2014-Sep-17 19:30 015 20.6
2014-Sep-17 19:15 031 0 gusting 2 20.6
2014-Sep-17 19:00 015 20.6
2014-Sep-17 18:45 355 20.6
2014-Sep-17 18:30 005 20.6
2014-Sep-17 18:15 028 0 gusting 5 20.6
2014-Sep-17 18:00 034 0 gusting 2 20.6
2014-Sep-17 17:45 346 0 gusting 2 20.6
2014-Sep-17 17:30 346 20.6
2014-Sep-17 17:15 292 0 gusting 1 20.6
2014-Sep-17 17:00 223 20.6